Home   Weather   Arden-Arcade   Past weeks

Flag for USA Past Weather in Arden-Arcade, California, USA — Yesterday and Last 2 Weeks

Now
64 °F

Mostly cloudy.


Feels Like: 64 °F
Forecast: 53 / 68 °F
Wind: 13 mph from South

Location: Mather Field

Current Time: Apr 26, 2017 at 4:52:47 pm

Latest Report: Apr 26, 2017 at 3:50 pm


Visibility: 10 mi

Pressure: 29.98 "Hg

Humidity: 78%

Dew Point: 57 °F

Location of Arden-ArcadeLocation

Past Weather in Arden-Arcade — Graph

°F

Arden-Arcade Temperature Yesterday

Maximum temperature yesterday: 70 °F (at 3:57 pm)
Minimum temperature yesterday: 48 °F (at 2:50 am)
Average temperature yesterday: 58 °F

High & Low Weather Summary for the Past Weeks

 TemperatureHumidityPressure
High77 °F (Apr 21, 4:45 pm)100% (Apr 12, 3:45 am)30.31 "Hg (Apr 12, 3:45 am)
Low36 °F (Apr 15, 5:50 am)26% (Apr 21, 4:45 pm)29.87 "Hg (Apr 12, 7:45 pm)
Average58 °F74%30.06 "Hg
* Reported Apr 11 2:45 pm — Apr 26 2:55 pm, Arden-Arcade, Weather by CustomWeather, © 2017

Note: Actual official high and low records may vary slightly from our data, if they occured in-between our weather recording intervals... More about our weather records

Advertising

Arden-Arcade Weather History for the Previous 24 Hours

Scroll right to see more
 ConditionsComfort  
Time TempWeatherWind HumidityBarometerVisibility
2:55 pm
Wed, Apr 26
64 °FOvercast.9 mph78%30.02 "Hg10 mi
1:45 pm63 °FOvercast.10 mph83%30.02 "Hg10 mi
12:45 pm61 °FOvercast.13 mph88%30.02 "Hg10 mi
11:50 am59 °FMostly cloudy.13 mph100%30.04 "Hg10 mi
10:50 am57 °FOvercast.10 mph100%30.04 "Hg10 mi
9:45 am57 °FMore clouds than sun.10 mph100%30.04 "Hg2 mi
8:59 am57 °FLow clouds.8 mph94%30.04 "Hg2 mi
7:45 am57 °FOvercast.9 mph94%30.04 "Hg10 mi
6:45 am57 °FOvercast.8 mph94%30.04 "Hg10 mi
5:45 am55 °FOvercast.7 mph100%30.02 "Hg10 mi
3:45 am55 °FOvercast.9 mph94%30.00 "Hg10 mi
2:45 am54 °FPassing clouds.6 mph100%30.02 "Hg10 mi
11:30 pm
Tue, Apr 25
57 °FPassing clouds.3 mph88%30.06 "Hg10 mi
10:50 pm57 °FOvercast.5 mph94%30.06 "Hg10 mi
9:45 pm59 °FPassing clouds.8 mph82%30.05 "Hg10 mi
8:45 pm59 °FPassing clouds.8 mph82%30.03 "Hg10 mi
7:48 pm63 °FPartly sunny.8 mph73%30.04 "Hg10 mi
6:45 pm66 °FPartly sunny.13 mph64%30.03 "Hg10 mi
5:58 pm68 °FScattered clouds.9 mph49%30.02 "Hg10 mi
Weather by CustomWeather, © 2017

See weather overviewHow to use our weather pages